[[{"header":{"parameterUnit":"m.s-1","parameterCategory":1,"la1":30.2991,"la2":30.254,"lo1":-89.0895,"lo2":-89.0444,"dy":0.0017,"dx":0.0017,"nx":28,"ny":28,"refTime":"2024-04-28T09:00:00:Z","depth":0,"parameterNumber":2,"parameterNumberName":"U-component_of_WINDS"},"data":[0,0,0,0,0,0,0,0,0,0,0,0,0,0,0,0,0,0,0,0,0,0,0,0,0,0,0,0,0,0,0,0,0,0,0,0,0,0,0,0,0,0,0,0,0,0,0,0,0,0,0,0,0,0,0,0,0,0,-5.2804,-5.2805,0,-5.2853,-5.2853,-5.2854,-5.2826,-5.2825,-5.2823,-5.2822,-5.2871,-5.2873,-5.2876,0,0,0,0,0,0,0,0,0,0,0,0,0,-5.2688,-5.269,-5.2804,-5.2805,-5.2805,-5.2853,-5.2853,-5.2854,-5.2826,-5.2824,-5.2823,-5.2821,-5.287,-5.2873,-5.2876,0,0,0,0,0,0,0,0,0,0,0,0,0,-5.2738,-5.2691,-5.2804,-5.2797,-5.2797,-5.2852,-5.2853,-5.2854,-5.2826,-5.2824,-5.2822,-5.282,-5.2869,-5.2873,-5.2877,-5.2941,0,0,-5.2888,-5.289,0,0,0,0,0,0,0,0,-5.2735,-5.2742,-5.2797,-5.2798,-5.2798,-5.2831,-5.283,-5.2883,-5.2827,-5.2815,-5.2822,-5.2819,-5.2859,-5.2864,-5.2877,-5.2944,-5.2946,-5.2889,-5.2891,-5.2893,-5.2894,0,0,0,0,0,0,0,-5.2731,-5.274,-5.2823,-5.2798,-5.2798,-5.2792,-5.2797,-5.284,-5.2848,-5.2816,-5.2814,-5.282,-5.2859,-5.2874,-5.2878,-5.2946,-5.2889,-5.2892,-5.2894,-5.2896,-5.3069,-5.3071,0,0,0,0,0,0,-5.2728,-5.2737,-5.2822,-5.2825,-5.2761,-5.2796,-5.2801,-5.2822,-5.2848,-5.2849,-5.2822,-5.2819,-5.2868,-5.2874,-5.288,-5.2957,-5.2893,-5.2896,-5.2899,-5.3067,-5.3069,-5.3072,0,0,0,0,0,0,-5.2726,-5.2736,-5.282,-5.278,-5.279,-5.28,-5.2824,-5.2824,-5.2839,-5.2852,-5.2853,-5.2836,-5.2867,-5.2875,-5.2926,-5.2958,-5.2898,-5.2902,-5.3064,-5.3067,-5.3071,-5.3111,0,0,0,0,0,0,-5.2723,-5.2736,-5.276,-5.2781,-5.2793,-5.2865,-5.2826,-5.2827,-5.2846,-5.2842,-5.2865,-5.2867,-5.2866,-5.2921,-5.293,-5.2962,-5.2905,-5.3061,-5.3065,-5.3069,-5.3107,-5.3115,-5.3123,0,0,0,0,0,-5.2719,-5.2769,-5.2761,-5.2771,-5.2823,-5.2867,-5.2873,-5.2871,-5.2849,-5.2873,-5.2882,-5.2866,-5.2954,-5.2926,-5.2937,-5.297,-5.3059,-5.3064,-5.3069,-5.3103,-5.3114,-5.3123,0,0,0,0,0,0,-5.275,-5.2771,-5.2763,-5.2822,-5.2843,-5.2862,-5.2892,-5.2882,-5.291,-5.2905,-5.2902,-5.2907,-5.2961,-5.2971,-5.294,-5.3035,-5.3003,-5.301,-5.3025,-5.3035,-5.3043,-5.3038,-5.2908,0,0,0,0,0,-5.2764,-5.2798,-5.2815,-5.2865,-5.2876,-5.2883,-5.2902,-5.2899,-5.292,-5.2929,-5.2941,-5.2963,-5.2995,-5.3016,-5.3047,-5.311,-5.3114,-5.3138,-5.3146,-5.3153,-5.3158,-5.3192,-5.3203,-5.3089,-5.3089,-5.3088,0,0,-5.2793,-5.2809,-5.283,-5.2872,-5.2887,-5.2922,-5.289,-5.2928,-5.2954,-5.2935,-5.2984,-5.2994,-5.3018,-5.3076,-5.3102,-5.3086,-5.3191,-5.3159,-5.3164,-5.3166,-5.3198,-5.3209,-5.3219,-5.3092,-5.3091,-5.3091,0,0,-5.2862,-5.2878,-5.2921,-5.2938,-5.2963,-5.2968,-5.2979,-5.3001,-5.3007,-5.3057,-5.3043,-5.3074,-5.313,-5.3148,-5.3164,-5.3244,-5.323,-5.3254,-5.3294,-5.3327,-5.3336,-5.3344,-5.3371,-5.3381,-5.326,-5.326,-5.326,0,-5.2894,-5.2946,-5.2945,-5.2984,-5.3003,-5.2988,-5.3032,-5.3049,-5.3083,-5.3096,-5.3079,-5.315,-5.3165,-5.3226,-5.3246,-5.326,-5.3272,-5.3249,-5.3335,-5.3343,-5.335,-5.3376,-5.3386,-5.3263,-5.3262,-5.3262,-5.3262,0,-5.2983,-5.302,-5.3052,-5.3085,-5.3108,-5.315,-5.3156,-5.3179,-5.3175,-5.3182,-5.3234,-5.3252,-5.3286,-5.3301,-5.3297,-5.3363,-5.3352,-5.3335,-5.3302,-5.3364,-5.3388,-5.3398,-5.3266,-5.3266,-5.3265,-5.3264,0,0,-5.307,-5.3104,-5.3116,-5.3131,-5.3159,-5.3187,-5.323,-5.3263,-5.3283,-5.3308,-5.3343,-5.3392,-5.3377,-5.3396,-5.3394,-5.3424,-5.3485,-5.3403,-5.3404,-5.3416,-5.3557,-5.3567,-5.3579,-5.3477,-5.3479,-5.3481,-5.3554,0,-5.314,-5.3212,-5.3214,-5.328,-5.3314,-5.3302,-5.3338,-5.336,-5.3368,-5.3398,-5.3408,-5.3442,-5.342,-5.3432,-5.3461,-5.3471,-5.3512,-5.3466,-5.3508,-5.351,-5.35,-5.3592,-5.3603,-5.3671,-5.3564,-5.3565,-5.3567,0,-5.323,-5.3258,-5.3328,-5.3352,-5.3366,-5.3398,-5.343,-5.346,-5.3484,-5.3489,-5.3511,-5.3506,-5.3549,-5.3518,-5.3577,-5.3545,-5.3564,-5.3572,-5.3574,-5.3576,-5.354,-5.3593,-5.3693,-5.3702,-5.3582,-5.3581,-5.3579,0,-5.3284,-5.334,-5.3389,-5.3403,-5.3432,-5.3455,-5.3469,-5.3492,-5.3512,-5.3541,-5.3554,-5.3588,-5.3605,-5.3632,-5.3636,-5.3613,-5.3695,-5.3664,-5.3699,-5.3699,-5.3714,-5.3712,-5.3815,-5.373,-5.373,-5.373,-5.373,0,-5.336,-5.3403,-5.3413,-5.3443,-5.3491,-5.3494,-5.3541,-5.3553,-5.3574,-5.3606,-5.3599,-5.3629,-5.3635,-5.3666,-5.3671,-5.3719,-5.3727,-5.3731,-5.3731,-5.373,-5.373,-5.374,-5.3734,-5.3733,-5.3732,-5.3732,-5.3731,0,-5.3427,-5.3436,-5.3489,-5.3513,-5.3521,-5.3555,-5.3576,-5.3605,-5.3614,-5.3655,-5.3664,-5.3678,-5.3716,-5.3723,-5.3768,-5.3771,-5.3827,-5.3824,-5.3818,-5.3817,-5.3851,-5.3847,-5.3961,-5.3976,-5.3884,-5.3885,-5.3886,0,-5.3474,-5.3506,-5.3535,-5.3556,-5.3571,-5.3605,-5.3627,-5.3632,-5.3654,-5.3686,-5.3711,-5.3748,-5.3777,-5.3838,-5.3852,-5.3886,-5.3882,-5.392,-5.3887,-5.3885,-5.388,-5.3877,-5.388,-5.3925,-5.3926,-5.3927,-5.3928,0,-5.3555,-5.3559,-5.3589,-5.3623,-5.3649,-5.3675,-5.37,-5.3718,-5.3727,-5.3753,-5.3791,-5.3814,-5.386,-5.3896,-5.3931,-5.3945,-5.3938,-5.3939,-5.3948,-5.3946,-5.3941,-5.3942,-5.3833,-5.3935,-5.3934,-5.3934,-5.3933,-5.3933,-5.3612,-5.3641,-5.3665,-5.3701,-5.372,-5.3745,-5.3773,-5.3786,-5.3818,-5.3855,-5.3857,-5.3899,-5.3924,-5.397,-5.3987,-5.402,-5.4008,-5.4022,-5.4025,-5.4028,-5.403,-5.3938,-5.4026,-5.4026,-5.4026,-5.4026,-5.4026,0,-5.3691,-5.3707,-5.374,-5.3776,-5.3804,-5.3796,-5.3824,-5.3848,-5.3884,-5.3909,-5.3939,-5.3983,-5.4019,-5.4037,-5.4073,-5.4096,-5.4093,-5.4105,-5.4102,-5.4105,-5.4039,-5.4027,-5.4106,-5.4106,-5.4106,-5.4106,-5.4106,-5.4106,-5.3736,-5.3783,-5.379,-5.3848,-5.3864,-5.3904,-5.3921,-5.3944,-5.3963,-5.4013,-5.4043,-5.4055,-5.4077,-5.4115,-5.4148,-5.4152,-5.4165,-5.4178,-5.418,-5.4118,-5.411,-5.4102,-5.409,-5.4181,-5.4181,-5.4243,-5.4243,-5.4244]},{"header":{"parameterUnit":"m.s-1","parameterCategory":1,"la1":30.2991,"la2":30.254,"lo1":-89.0895,"lo2":-89.0444,"dy":0.0017,"dx":0.0017,"nx":28,"ny":28,"refTime":"2024-04-28T09:00:00:Z","depth":0,"parameterNumber":3,"parameterNumberName":"V-component_of_WINDS"},"data":[0,0,0,0,0,0,0,0,0,0,0,0,0,0,0,0,0,0,0,0,0,0,0,0,0,0,0,0,0,0,0,0,0,0,0,0,0,0,0,0,0,0,0,0,0,0,0,0,0,0,0,0,0,0,0,0,0,0,5.2694,5.2693,0,5.2663,5.2663,5.2663,5.2676,5.2677,5.2678,5.2678,5.2641,5.2639,5.2638,0,0,0,0,0,0,0,0,0,0,0,0,0,5.2758,5.2757,5.2694,5.2693,5.2693,5.2663,5.2663,5.2663,5.2676,5.2677,5.2678,5.2679,5.2642,5.264,5.2638,0,0,0,0,0,0,0,0,0,0,0,0,0,5.2729,5.2756,5.2694,5.2696,5.2696,5.2664,5.2663,5.2662,5.2676,5.2677,5.2678,5.2679,5.2642,5.264,5.2637,5.2598,0,0,5.2629,5.2628,0,0,0,0,0,0,0,0,5.2731,5.2727,5.2696,5.2696,5.2696,5.2675,5.2672,5.2641,5.2676,5.2683,5.2678,5.268,5.2651,5.2648,5.2639,5.2597,5.2595,5.2629,5.2628,5.2627,5.2626,0,0,0,0,0,0,0,5.2733,5.2728,5.2681,5.2696,5.2695,5.2697,5.2694,5.2666,5.2661,5.2683,5.2684,5.268,5.2651,5.2642,5.2639,5.2595,5.2629,5.2627,5.2625,5.2624,5.252,5.2519,0,0,0,0,0,0,5.2735,5.273,5.2682,5.2681,5.2717,5.2695,5.2692,5.268,5.2661,5.266,5.2679,5.2681,5.2646,5.2642,5.2637,5.2592,5.2627,5.2624,5.2623,5.2522,5.252,5.2519,0,0,0,0,0,0,5.2737,5.2731,5.2684,5.2705,5.27,5.2693,5.268,5.2679,5.267,5.2659,5.2657,5.2671,5.2646,5.2641,5.2609,5.2591,5.2623,5.2621,5.2523,5.2521,5.2519,5.2501,0,0,0,0,0,0,5.2739,5.2731,5.2718,5.2705,5.2698,5.2657,5.2679,5.2678,5.2666,5.2668,5.2651,5.2649,5.2647,5.2613,5.2606,5.2588,5.2619,5.2525,5.2522,5.252,5.2503,5.2498,5.2495,0,0,0,0,0,5.2741,5.2712,5.2717,5.2711,5.2681,5.2656,5.2652,5.2652,5.2665,5.265,5.2644,5.2649,5.2594,5.2609,5.2602,5.2583,5.2526,5.2523,5.252,5.2505,5.2499,5.2495,0,0,0,0,0,0,5.2719,5.271,5.2716,5.2682,5.267,5.2658,5.264,5.2646,5.2628,5.2631,5.263,5.2626,5.2593,5.2584,5.2602,5.2545,5.2562,5.2557,5.2552,5.2547,5.2543,5.2546,5.2617,0,0,0,0,0,5.2711,5.2693,5.2685,5.2656,5.265,5.2646,5.2635,5.2637,5.2623,5.2618,5.2608,5.2594,5.2573,5.2559,5.254,5.2502,5.2498,5.2485,5.2481,5.2478,5.2474,5.2455,5.2449,5.251,5.251,5.251,0,0,5.2693,5.2686,5.2674,5.2652,5.2643,5.2623,5.2642,5.262,5.2605,5.2614,5.2584,5.2577,5.256,5.2526,5.251,5.2518,5.2456,5.2474,5.2471,5.2469,5.2451,5.2445,5.244,5.2508,5.2508,5.2509,0,0,5.2651,5.2643,5.2619,5.2611,5.2598,5.2596,5.259,5.2578,5.2575,5.2545,5.2552,5.2534,5.2498,5.2487,5.2476,5.2432,5.2437,5.2425,5.2404,5.2385,5.238,5.2376,5.2361,5.2356,5.2422,5.2422,5.2422,0,5.2629,5.2602,5.2605,5.2584,5.2574,5.2584,5.256,5.255,5.253,5.2523,5.2532,5.249,5.2479,5.2443,5.2433,5.2423,5.2417,5.2427,5.2381,5.2377,5.2373,5.2359,5.2353,5.242,5.242,5.2421,5.2421,0,5.2577,5.2558,5.254,5.2524,5.2512,5.2489,5.2488,5.2475,5.2478,5.2474,5.2445,5.2433,5.2412,5.2404,5.2405,5.2368,5.2373,5.2382,5.2398,5.2366,5.2353,5.2347,5.2419,5.2419,5.2419,5.242,0,0,5.2519,5.2508,5.2501,5.2495,5.2482,5.2467,5.2444,5.2426,5.2416,5.2402,5.2383,5.2354,5.2363,5.2351,5.2351,5.2335,5.2302,5.2345,5.2345,5.2339,5.2262,5.2256,5.225,5.2306,5.2305,5.2304,5.2264,0,5.2476,5.244,5.2443,5.2407,5.239,5.24,5.238,5.237,5.2367,5.235,5.2346,5.2326,5.2338,5.2332,5.2316,5.2309,5.2287,5.2312,5.2287,5.2286,5.2292,5.2243,5.2236,5.2199,5.2258,5.2258,5.2257,0,5.2422,5.241,5.2373,5.2366,5.2359,5.2341,5.2326,5.2311,5.2299,5.2298,5.2286,5.229,5.2266,5.2284,5.2251,5.2268,5.2258,5.2254,5.2252,5.225,5.227,5.224,5.2187,5.2182,5.2249,5.2249,5.225,0,5.2385,5.2359,5.2335,5.2329,5.2319,5.2307,5.2301,5.2291,5.2281,5.2267,5.2261,5.2243,5.2233,5.2219,5.2218,5.2231,5.2186,5.2202,5.2183,5.2184,5.2173,5.2174,5.2119,5.2166,5.2166,5.2166,5.2166,0,5.2338,5.2315,5.2318,5.2303,5.2278,5.2282,5.2257,5.2252,5.2244,5.2227,5.2234,5.2218,5.2217,5.22,5.2199,5.2173,5.2168,5.2166,5.2166,5.2166,5.2166,5.2159,5.2162,5.2165,5.2165,5.2165,5.2165,0,5.2292,5.2293,5.2267,5.2261,5.2259,5.2241,5.2235,5.222,5.2219,5.2198,5.2193,5.2189,5.217,5.2168,5.2144,5.2143,5.2113,5.2115,5.2117,5.2118,5.2099,5.2102,5.2038,5.203,5.2082,5.2081,5.2081,0,5.2262,5.2246,5.2239,5.223,5.2225,5.2209,5.22,5.2202,5.2192,5.2179,5.2166,5.2148,5.2134,5.2103,5.2097,5.208,5.2082,5.2061,5.2079,5.2081,5.2083,5.2085,5.2083,5.2058,5.2057,5.2057,5.2056,0,5.2209,5.2212,5.2199,5.2187,5.2176,5.2166,5.2156,5.2148,5.2149,5.2137,5.2119,5.2109,5.2087,5.2069,5.2053,5.2046,5.2051,5.2051,5.2046,5.2045,5.2048,5.2048,5.2109,5.2052,5.2052,5.2053,5.2053,5.2053,5.2171,5.2158,5.2152,5.2138,5.2132,5.2123,5.211,5.2107,5.2093,5.2078,5.208,5.206,5.205,5.2029,5.2021,5.2005,5.2012,5.2004,5.2002,5.2,5.1999,5.2051,5.2002,5.2002,5.2002,5.2002,5.2002,0,5.212,5.2117,5.2104,5.2093,5.2081,5.209,5.208,5.207,5.2054,5.2045,5.2032,5.2012,5.1996,5.1989,5.1973,5.1962,5.1964,5.1957,5.1958,5.1957,5.1993,5.2,5.1956,5.1956,5.1956,5.1956,5.1956,5.1956,5.2092,5.2071,5.2072,5.2047,5.2044,5.2027,5.2021,5.2013,5.2007,5.1985,5.1972,5.1969,5.1962,5.1945,5.193,5.1929,5.1923,5.1915,5.1915,5.1949,5.1954,5.1958,5.1965,5.1914,5.1914,5.188,5.188,5.1879]}]]